User: anonymous   Login
Location: Brachbach
(49.1847°N, 9.7240°E)
Time: 08:45:33
(UTC+00:00)
Language:

CZ-2C R/B - Orbit

View from above orbital plane
View from above orbital plane
View from above satellite
View from above satellite

Ground track
Ground track

The orbit data is extracted from the following two-line orbital elements,

1 31114U 07010B   24196.88123580  .00000316  00000-0  16567-3 0  9993
2 31114  98.3361 331.3355 0058304 247.3388 112.1618 14.19811381894176
Epoch (UTC): 14 July 2024 21:08:58
Eccentricity: 0.0058304
inclination: 98.3361°
perigee height: 784 km
apogee height: 868 km
right ascension of ascending node: 331.3355°
argument of perigee: 247.3388°
revolutions per day: 14.19811381
mean anomaly at epoch: 112.1618°
orbit number at epoch: 89417

The dashed part of the orbit path shows where the satellite is in the earth's shadow,  

DLR